AI4ZL Weather Reports


time (UTC)temp
C
wind
direction
speed
KPH
gust
KPH
rain 1hr
cm
rain 24hr
cm
rain mn
cm
humidity
%
barometer
mb
20260905135246 31 0.0 0.0 0.00 0.00 0.00 79 1016.1
20260905134241 30 0.0 0.0 0.00 0.00 0.00 81 1015.9
20260905133236 29 0.0 0.0 0.00 0.00 0.00 85 1015.9
20260905132230 27 0.0 0.0 0.00 0.00 0.00 94 1016.0
20260905131246 26 0.0 0.0 0.00 0.00 0.00 99 1015.8
20260905130241 25 0.0 0.0 0.00 0.00 0.00 99 1015.9
20260905125234 24 0.0 0.0 0.00 0.00 0.00 99 1015.8
20260905124249 23 0.0 0.0 0.00 0.00 0.00 99 1015.7
20260905123244 23 0.0 0.0 0.00 0.00 0.00 99 1015.6
20260905122238 23 0.0 0.0 0.00 0.00 0.00 99 1015.7
20260905121234 22 0.0 0.0 0.00 0.00 0.00 99 1015.5
20260905120248 22 0.0 0.0 0.00 0.00 0.00 99 1015.5
20260905115243 22 0.0 0.0 0.00 0.00 0.00 99 1015.4
20260905114237 22 0.0 0.0 0.00 0.00 0.00 99 1015.4
20260905113230 22 0.0 0.0 0.00 0.00 0.00 99 1015.3
20260905112245 22 0.0 0.0 0.00 0.00 0.00 99 1015.3
20260905111240 22 0.0 0.0 0.00 0.00 0.00 99 1015.3
20260905110235 22 0.0 0.0 0.00 0.00 0.00 99 1015.2
20260905105309 22 0.0 0.0 0.00 0.00 0.00 99 1015.2
20260905104305 22 0.0 0.0 0.00 0.00 0.00 99 1015.0
20260905103239 22 0.0 0.0 0.00 0.00 0.00 99 1015.0
20260905102233 22 0.0 0.0 0.00 0.00 0.00 99 1014.9
20260905101248 22 0.0 0.0 0.00 0.00 0.00 99 1014.8
20260905100243 22 0.0 0.0 0.00 0.00 0.00 99 1014.7
20260905095239 23 0.0 0.0 0.00 0.00 0.00 99 1014.7
20260905094234 23 0.0 0.0 0.00 0.00 0.00 99 1014.6
20260905093309 22 0.0 0.0 0.00 0.00 0.00 99 1014.6
20260905092244 23 0.0 0.0 0.00 0.00 0.00 99 1014.6
20260905091239 22 0.0 0.0 0.00 0.00 0.00 99 1014.7
20260905090234 22 0.0 0.0 0.00 0.00 0.00 99 1014.7
20260905085249 22 0.0 0.0 0.00 0.00 0.00 99 1014.8
20260905084305 23 0.0 0.0 0.00 0.00 0.00 99 1014.7
20260905083240 23 0.0 0.0 0.00 0.00 0.00 99 1014.7
20260905082235 23 0.0 0.0 0.00 0.00 0.00 99 1014.6
20260905081250 23 0.0 0.0 0.00 0.00 0.00 99 1014.8
20260905080244 23 0.0 0.0 0.00 0.00 0.00 99 1014.7
20260905075259 23 0.0 0.0 0.00 0.00 0.00 99 1014.9
20260905074253 23 0.0 0.0 0.00 0.00 0.00 99 1014.9
20260905073248 23 0.0 0.0 0.00 0.00 0.00 99 1014.8
20260905072242 23 0.0 0.0 0.00 0.00 0.00 99 1014.9
20260905071237 23 0.0 0.0 0.00 0.00 0.00 99 1015.0
20260905070231 23 0.0 0.0 0.00 0.00 0.00 99 1015.1
20260905065246 23 0.0 0.0 0.00 0.00 0.00 99 1015.1
20260905064242 23 0.0 0.0 0.00 0.00 0.00 99 1015.2
20260905063239 23 0.0 0.0 0.00 0.00 0.00 99 1015.2
20260905062255 24 0.0 0.0 0.00 0.00 0.00 99 1015.2
20260905061249 23 0.0 0.0 0.00 0.00 0.00 99 1015.2
20260905060243 23 0.0 0.0 0.00 0.00 0.00 99 1015.3
20260905055238 24 0.0 0.0 0.00 0.00 0.00 99 1015.2
20260905054233 24 0.0 0.0 0.00 0.00 0.00 99 1015.1
20260905053248 24 0.0 0.0 0.00 0.00 0.00 99 1015.4
20260905052244 24 0.0 0.0 0.00 0.00 0.00 99 1015.3
20260905051239 24 0.0 0.0 0.00 0.00 0.00 99 1015.5
20260905050234 24 0.0 0.0 0.00 0.00 0.00 99 1015.4
20260905045249 24 0.0 0.0 0.00 0.00 0.00 99 1015.5
20260905044243 25 0.0 0.0 0.00 0.00 0.00 99 1015.4
20260905043238 24 0.0 0.0 0.00 0.00 0.00 99 1015.6
20260905042232 25 318 0.0 1.6 0.00 0.00 0.00 99 1015.5
20260905041247 25 318 0.0 1.6 0.00 0.00 0.00 98 1015.5
20260905040242 25 0.0 0.0 0.00 0.00 0.00 98 1015.4
20260905035236 25 0.0 0.0 0.00 0.00 0.00 98 1015.4
20260905034232 25 0.0 0.0 0.00 0.00 0.00 98 1015.4
20260905033307 25 0.0 0.0 0.00 0.00 0.00 98 1015.5
20260905032306 26 0.0 0.0 0.00 0.00 0.00 98 1015.5
20260905031238 25 303 0.0 1.6 0.00 0.00 0.00 98 1015.7
20260905030233 26 0.0 0.0 0.00 0.00 0.00 97 1015.8
20260905025248 26 0.0 0.0 0.00 0.00 0.00 97 1015.6
20260905024242 26 0.0 0.0 0.00 0.00 0.00 96 1015.4
20260905023237 26 0.0 0.0 0.00 0.00 0.00 95 1015.4
20260905022251 26 0.0 0.0 0.00 0.00 0.00 95 1015.4
20260905021246 26 0.0 0.0 0.00 0.00 0.00 94 1015.5
20260905020241 26 0.0 0.0 0.00 0.00 0.00 94 1015.4
20260905015236 27 329 0.0 1.6 0.00 0.00 0.00 93 1015.4
20260905014251 27 315 0.0 1.6 0.00 0.00 0.00 94 1015.2
20260905013246 27 0.0 0.0 0.00 0.00 0.00 92 1015.1
20260905012300 27 327 0.0 1.6 0.00 0.00 0.00 91 1014.9
20260905011235 28 322 0.0 1.6 0.00 0.00 0.00 89 1014.9
20260905010250 28 322 0.0 1.6 0.00 0.00 0.00 90 1014.8
20260905005244 28 318 0.0 1.6 0.00 0.00 0.00 90 1014.9
20260905004300 29 12 0.0 1.6 0.00 0.00 0.00 87 1014.7
20260905003237 30 0.0 0.0 0.00 0.00 0.00 86 1014.6
20260905002232 31 0.0 0.0 0.00 0.00 0.00 80 1014.5
20260905001246 32 0.0 0.0 0.00 0.00 0.00 78 1014.6
20260905000242 32 0.0 0.0 0.00 0.00 0.00 76 1014.4
20260904235258 33 0.0 0.0 0.00 0.00 0.00 71 1014.4
20260904234232 34 0.0 0.0 0.00 0.00 0.00 72 1014.4
20260904233246 35 0.0 0.0 0.00 0.00 0.00 68 1014.4
20260904232242 35 352 0.0 1.6 0.00 0.00 0.00 62 1014.4
20260904231257 35 13 1.6 1.6 0.00 0.00 0.00 58 1014.4
20260904230232 36 14 1.6 1.6 0.00 0.00 0.00 58 1014.3
20260904225248 37 357 0.0 1.6 0.00 0.00 0.00 56 1014.2
20260904224302 37 358 0.0 1.6 0.00 0.00 0.00 53 1014.4
20260904223238 38 359 0.0 1.6 0.00 0.00 0.00 52 1014.5
20260904222233 37 14 0.0 1.6 0.00 0.00 0.00 55 1014.5
20260904221308 36 347 0.0 1.6 0.00 0.00 0.00 56 1014.4
20260904220242 37 0 1.6 3.2 0.00 0.00 0.00 53 1014.5
20260904215237 37 9 1.6 3.2 0.00 0.00 0.00 52 1014.4
20260904214232 37 50 1.6 3.2 0.00 0.00 0.00 53 1014.6
20260904213307 37 108 1.6 4.8 0.00 0.00 0.00 54 1014.9
20260904212242 38 16 1.6 3.2 0.00 0.00 0.00 51 1014.9
20260904211257 38 330 1.6 3.2 0.00 0.00 0.00 51 1014.9
20260904210252 38 333 1.6 3.2 0.00 0.00 0.00 52 1015.0
20260904205247 38 312 1.6 4.8 0.00 0.00 0.00 49 1015.2
20260904204242 38 49 1.6 3.2 0.00 0.00 0.00 49 1015.4
20260904203258 38 257 3.2 6.4 0.00 0.00 0.00 50 1015.5
20260904202232 38 278 1.6 4.8 0.00 0.00 0.00 49 1015.4
20260904201246 38 271 3.2 6.4 0.00 0.00 0.00 50 1015.6
20260904200241 37 152 3.2 4.8 0.00 0.00 0.00 52 1015.8
20260904195235 38 265 1.6 3.2 0.00 0.00 0.00 52 1015.9
20260904194231 37 13 1.6 3.2 0.00 0.00 0.00 52 1016.1
20260904193306 37 22 1.6 3.2 0.00 0.00 0.00 53 1016.3
20260904192240 38 14 3.2 6.4 0.00 0.00 0.00 52 1016.5
20260904191235 38 312 1.6 3.2 0.00 0.00 0.00 53 1016.6
20260904190231 36 45 1.6 3.2 0.00 0.00 0.00 56 1016.7
20260904185247 36 54 3.2 4.8 0.00 0.00 0.00 56 1016.8
20260904184243 36 276 1.6 3.2 0.00 0.00 0.00 56 1017.0
20260904183239 36 307 1.6 6.4 0.00 0.00 0.00 55 1017.0
20260904182236 36 348 1.6 3.2 0.00 0.00 0.00 55 1017.1
20260904181232 37 17 1.6 4.8 0.00 0.00 0.00 54 1017.2
20260904180248 37 315 1.6 3.2 0.00 0.00 0.00 54 1017.1
20260904175244 37 296 3.2 6.4 0.00 0.00 0.00 54 1017.2
20260904174240 37 320 1.6 3.2 0.00 0.00 0.00 55 1017.3
20260904173257 37 5 1.6 3.2 0.00 0.00 0.00 54 1017.5
20260904172233 37 278 1.6 4.8 0.00 0.00 0.00 54 1017.6
20260904171250 36 271 3.2 6.4 0.00 0.00 0.00 54 1017.7
20260904170245 37 324 1.6 3.2 0.00 0.00 0.00 54 1017.6
20260904165305 36 330 1.6 4.8 0.00 0.00 0.00 59 1017.8
20260904164258 36 22 1.6 3.2 0.00 0.00 0.00 60 1017.8
20260904163253 35 28 3.2 6.4 0.00 0.00 0.00 63 1017.9
20260904162248 35 24 1.6 4.8 0.00 0.00 0.00 64 1017.9
20260904161243 35 98 1.6 3.2 0.00 0.00 0.00 61 1017.8
20260904160238 35 327 1.6 3.2 0.00 0.00 0.00 61 1017.9
20260904155232 35 276 3.2 6.4 0.00 0.00 0.00 63 1018.0
20260904154248 35 329 1.6 3.2 0.00 0.00 0.00 67 1018.0
20260904153243 35 290 1.6 3.2 0.00 0.00 0.00 65 1018.0
20260904152238 34 296 3.2 9.7 0.00 0.00 0.00 62 1018.0
20260904151253 33 23 1.6 1.6 0.00 0.00 0.00 67 1017.7
20260904150247 33 356 1.6 3.2 0.00 0.00 0.00 69 1017.8
20260904145242 32 249 1.6 3.2 0.00 0.00 0.00 71 1017.7
20260904144236 32 325 0.0 1.6 0.00 0.00 0.00 70 1017.3
20260904143231 32 98 1.6 3.2 0.00 0.00 0.00 74 1017.5
20260904142247 31 204 1.6 3.2 0.00 0.00 0.00 76 1017.6
20260904141243 31 184 1.6 3.2 0.00 0.00 0.00 78 1017.6
20260904140239 30 104 1.6 3.2 0.00 0.00 0.00 79 1017.5